Location: Mount Cross
(36.6390°N, 79.4878°W)
Time: 20:04:39
(UTC+00:00)

Courier 1B Rocket - Pass Details

Date: 22 March 2023
Orbit: 920 x 1202 km, 28.2° (Epoch: 05 June)

Event Time Altitude Azimuth Distance (km) Brightness Sun altitude
Rises 06:59:28 0° 263° (W) 3,557 - -46.8°
Reaches altitude 10° 07:02:30 10° 251° (WSW) 2,604 - -46.5°
Maximum altitude 07:07:29 25° 197° (SSW) 1,746 - -45.9°
Drops below altitude 10° 07:12:32 10° 144° (SE) 2,637 - -45.2°
Sets 07:15:38 0° 131° (SE) 3,611 - -44.8°
